Regional Weather Roundup
Issued by NWS Albany, NY

Home | Current Version | Previous Version | Text Only | Print | Product List | Glossary On
Versions: 1 2 3 4 5 6 7 8 9 10 11 12 13 14 15 16 17 18 19 20 21 22 23 24 25 26 27 28 29 30 31 32 33 34 35 36 37 38 39 40 41 42 43 44 45 46 47 48 49 50
000
ASUS41 KALY 310310
RWRALY

NEW YORK STATE HOURLY WEATHER ROUNDUP
NATIONAL WEATHER SERVICE ALBANY NY
1100 PM EDT WED JUL 30 2014

NOTE: "FAIR" INDICATES FEW OR NO CLOUDS BELOW 12,000 FEET WITH NO
SIGNIFICANT WEATHER AND/OR NO OBSTRUCTIONS TO VISIBILITY.

NYZ032-033-038>043-046>054-057>066-NYZ062>081-310400-
EAST


CITY           SKY/WX    TMP DP  RH WIND       PRES   REMARKS
ALBANY         MOCLDY    68  56  65 S7        30.02R
GLENS FALLS    CLEAR     59  56  89 CALM      30.00S
POUGHKEEPSIE   CLEAR     63  58  83 CALM      30.03S
NEWBURGH       CLEAR     66  57  72 CALM      30.05S
MONTGOMERY     CLEAR     60  57  89 CALM      30.04S
WHITE PLAINS   CLEAR     64  58  80 CALM      30.05S
ISLIP          CLEAR     71  59  65 S6        30.04S
NEW YORK CITY  PTCLDY    73  57  57 SW9       30.04S
CENTRAL PARK   CLEAR     72  56  57 VRB6      30.07S
$$

NYZ005>009-017-018-044>046-055-056-310400-
CENTRAL


CITY           SKY/WX    TMP DP  RH WIND       PRES   REMARKS
FULTON         CLOUDY    59  57  93 CALM      30.00S
SYRACUSE       CLOUDY    61  58  90 SE5       30.00F
ROME           LGT RAIN  59  58  96 E6        30.04R
ELMIRA         CLEAR     56  55  97 CALM      30.03F
BINGHAMTON     MOCLDY    60  56  86 CALM      30.06S
MONTICELLO     CLEAR     57  55  94 CALM      30.08S
$$

NYZ026>034-041>043-310400-
NORTH


CITY           SKY/WX    TMP DP  RH WIND       PRES   REMARKS
WATERTOWN      MOCLDY    61  53  75 S6        29.98F
FORT DRUM      NOT AVBL
MASSENA        PTCLDY    58  57  97 CALM      29.98S
SARANAC LAKE   PTCLDY    52  50  93 CALM      30.00S
PLATTSBURGH    CLOUDY    59  56  89 CALM      29.97S
$$

NYZ001>004-010>016-019>021-310400-
WEST


CITY           SKY/WX    TMP DP  RH WIND       PRES   REMARKS
NIAGARA FALLS  PTCLDY    62  59  90 SW7       29.99R
BUFFALO        MOCLDY    65  58  78 SW9       29.99S
DUNKIRK        MOCLDY    62  56  80 S8        30.01S
JAMESTOWN      PTCLDY    57  55  94 S5        30.05S
WELLSVILLE     MOCLDY    58  53  84 SW7       30.07R
ROCHESTER      PTCLDY    61  58  90 SW3       30.00R
PENN YAN       CLEAR     58  56  93 CALM      30.02F
$$

             KEY
       WCI = WIND CHILL INDEX
       VSB = VISIBILITY
       HX  = HEAT INDEX
$$



USA.gov is the U.S. government's official web portal to all federal, state and local government web resources and services.